Tracking 30995 objects as of 5-Jul-2025
HD Live streaming from Space Station
objects crossing your sky now

CZ-4 DEB

Track CZ-4 DEB now!
10-day predictions


NORAD ID: 20881
Int'l Code: 1990-081AR
Perigee: 702.2 km
Apogee: 803.3 km
Inclination: 98.5 °
Period: 99.7 minutes
Semi major axis: 7123 km
RCS: 0.1863 m2 (medium)
Launch date: September 3, 1990
Source: People's Republic of China (PRC)
Launch site: Taiyaun Space Center, China (TSC)

Note: This is SATELLITE DEBRIS
Your satellite tracking list
Your tracking list is empty




NASA's NSSDC Master Catalog

Two Line Element Set (TLE):
1 20881U 90081AR  25186.59022989  .00000582  00000-0  17886-3 0  9991
2 20881  98.4735 192.2423 0070926 244.7659 114.6168 14.43909546802115
Source of the keplerian elements: AFSPC